Regional Weather Roundup
Issued by NWS

Home | Current Version | Previous Version | Graphics & Text | Print | Product List | Glossary On
Versions: 1 2 3 4 5 6 7 8 9 10 11 12 13 14 15 16 17 18 19 20 21 22 23 24 25 26 27 28 29 30 31 32 33 34 35 36 37 38 39 40 41 42 43 44 45 46 47 48 49 50
000
ASUS43 KFSD 160102
RWRSD

WEATHER ROUNDUP FOR SOUTH DAKOTA
NATIONAL WEATHER SERVICE SIOUX FALLS SD
800 PM CDT MON SEP 15 2014

NOTE: "FAIR" INDICATES FEW OR NO CLOUDS BELOW 12,000 FEET WITH NO
SIGNIFICANT WEATHER AND/OR OBSTRUCTIONS TO VISIBILITY.


SDZ001>005-009-010-012>017-160200-
NORTHWEST AND NORTH CENTRAL SOUTH DAKOTA

CITY           SKY/WX    TMP DP  RH WIND       PRES   REMARKS
FAITH            N/A     57  41  55 SE10      30.14F
MOBRIDGE       CLEAR     54  41  61 S7        30.14F
$$

SDZ012>016-024>037-041>051-057-063-072>074-160200-
SOUTHWEST AND SOUTH CENTRAL SOUTH DAKOTA

CITY           SKY/WX    TMP DP  RH WIND       PRES   REMARKS
RAPID CTY ARPT CLEAR     59  45  59 SE9       30.13F
PIERRE         CLEAR     54  38  54 SE9       30.17F
CUSTER         CLEAR     55  41  59 S3        30.22F
ELLSWORTH AFB  CLEAR     62  46  55 S12       30.12F
PHILIP         CLEAR     60  41  49 SE7       30.15F
PINE RIDGE     CLEAR     60  43  53 SE8       30.16F
WINNER         FAIR      55  40  56 SE6       30.21F
$$

SDZ004>011-016>023-039-040-160200-
NORTHEAST SOUTH DAKOTA

CITY           SKY/WX    TMP DP  RH WIND       PRES   REMARKS
ABERDEEN       CLEAR     49  42  77 S7        30.19F
WATERTOWN      CLEAR     51  37  58 W3        30.21S
$$

SDZ017-020-022-023-036>040-048>070-160200-
SOUTHEAST SOUTH DAKOTA

CITY           SKY/WX    TMP DP  RH WIND       PRES   REMARKS
SIOUX FALLS    CLEAR     54  42  64 W3        30.23S
HURON          CLEAR     55  37  50 SE3       30.21F
CHAMBERLAIN    CLEAR     52  41  66 SE3       30.21F
MITCHELL       CLEAR     57  40  52 CALM      30.22F
YANKTON        CLEAR     55  43  62 CALM      30.23S
$$

ABBREVIATIONS USED IN REMARKS
   TC - TEMPERATURE IN CELSIUS
  WCI - WIND CHILL INDEX
   HX - HEAT INDEX
  VSB - VISIBILITY




USA.gov is the U.S. government's official web portal to all federal, state and local government web resources and services.